Time,TemperatureF,DewpointF,PressureIn,WindDirection,WindDirectionDegrees,WindSpeedMPH,WindSpeedGustMPH,Humidity,HourlyPrecipIn,Conditions,Clouds,dailyrainin,SoftwareType,DateUTC
2013-03-09 08:31:00,76.5,69.5,29.97,NNW,332,3.0,9.0,79,0.00,,,0.00,Wunderground v.1.15,2013-03-09 12:31:00,
2013-03-09 08:40:00,76.5,69.5,29.97,North,351,4.0,4.0,79,0.00,,,0.00,Wunderground v.1.15,2013-03-09 12:40:00,
2013-03-09 08:50:00,76.8,69.8,29.98,North,356,2.0,2.0,79,0.00,,,0.00,Wunderground v.1.15,2013-03-09 12:50:00,
2013-03-09 09:00:00,77.0,69.6,29.98,NNW,338,3.0,3.0,78,0.00,,,0.00,Wunderground v.1.15,2013-03-09 13:00:00,
2013-03-09 09:10:00,77.7,69.5,29.98,NW,326,4.0,5.0,76,0.00,,,0.00,Wunderground v.1.15,2013-03-09 13:10:00,
2013-03-09 09:20:00,78.3,69.3,29.98,North,356,5.0,5.0,74,0.00,,,0.00,Wunderground v.1.15,2013-03-09 13:20:00,
2013-03-09 09:30:00,78.3,69.3,29.98,NNW,344,4.0,4.0,74,0.00,,,0.00,Wunderground v.1.15,2013-03-09 13:30:00,
2013-03-09 09:40:00,77.9,68.9,29.99,NNW,336,5.0,5.0,74,0.00,,,0.00,Wunderground v.1.15,2013-03-09 13:40:00,
2013-03-09 09:50:00,78.1,68.7,29.99,North,352,3.0,4.0,73,0.00,,,0.00,Wunderground v.1.15,2013-03-09 13:50:00,
2013-03-09 10:00:00,78.6,69.2,29.99,NNE,17,3.0,3.0,73,0.00,,,0.00,Wunderground v.1.15,2013-03-09 14:00:00,
2013-03-09 10:10:00,78.8,69.0,29.99,NNW,330,3.0,3.0,72,0.00,,,0.00,Wunderground v.1.15,2013-03-09 14:10:00,
2013-03-09 10:20:00,78.8,68.6,29.99,North,9,3.0,3.0,71,0.00,,,0.00,Wunderground v.1.15,2013-03-09 14:20:00,
2013-03-09 10:30:00,79.2,69.0,29.99,North,7,3.0,5.0,71,0.00,,,0.00,Wunderground v.1.15,2013-03-09 14:30:00,
2013-03-09 10:40:00,80.1,69.0,29.99,NNW,332,3.0,3.0,69,0.00,,,0.00,Wunderground v.1.15,2013-03-09 14:40:00,
2013-03-09 10:50:00,80.3,69.2,29.98,North,355,4.0,4.0,69,0.00,,,0.00,Wunderground v.1.15,2013-03-09 14:50:00,
2013-03-09 11:00:00,80.9,69.3,29.98,NW,315,4.0,7.0,68,0.00,,,0.00,Wunderground v.1.15,2013-03-09 15:00:00,
2013-03-09 11:10:00,80.5,69.0,29.98,NNW,341,5.0,5.0,68,0.00,,,0.00,Wunderground v.1.15,2013-03-09 15:10:00,
2013-03-09 11:20:00,80.7,69.6,29.97,NW,320,4.0,4.0,69,0.00,,,0.00,Wunderground v.1.15,2013-03-09 15:20:00,
2013-03-09 11:30:00,80.9,69.3,29.97,NW,325,5.0,5.0,68,0.00,,,0.00,Wunderground v.1.15,2013-03-09 15:30:00,
2013-03-09 11:40:00,81.1,69.1,29.97,North,358,6.0,7.0,67,0.00,,,0.00,Wunderground v.1.15,2013-03-09 15:40:00,
2013-03-09 11:50:00,81.4,68.9,29.97,North,357,6.0,6.0,66,0.00,,,0.00,Wunderground v.1.15,2013-03-09 15:50:00,
2013-03-09 12:00:00,81.6,69.6,29.97,NW,309,5.0,5.0,67,0.00,,,0.00,Wunderground v.1.15,2013-03-09 16:00:00,
2013-03-09 12:10:00,82.0,68.6,29.96,NW,313,5.0,5.0,64,0.00,,,0.00,Wunderground v.1.15,2013-03-09 16:10:00,
2013-03-09 12:20:00,82.0,69.1,29.95,WNW,292,5.0,5.0,65,0.00,,,0.00,Wunderground v.1.15,2013-03-09 16:20:00,
2013-03-09 12:30:00,81.4,68.5,29.95,North,350,5.0,6.0,65,0.00,,,0.00,Wunderground v.1.15,2013-03-09 16:30:00,
2013-03-09 12:40:00,81.4,68.5,29.95,NW,307,5.0,5.0,65,0.00,,,0.00,Wunderground v.1.15,2013-03-09 16:40:00,
2013-03-09 12:50:00,81.6,68.7,29.94,NNW,334,5.0,7.0,65,0.00,,,0.00,Wunderground v.1.15,2013-03-09 16:50:00,
2013-03-09 13:00:00,82.6,69.2,29.94,WNW,296,5.0,7.0,64,0.00,,,0.00,Wunderground v.1.15,2013-03-09 17:00:00,
2013-03-09 13:10:00,81.8,68.4,29.94,WNW,284,7.0,7.0,64,0.00,,,0.00,Wunderground v.1.15,2013-03-09 17:10:00,
2013-03-09 13:20:00,81.8,68.4,29.93,NNW,334,6.0,6.0,64,0.00,,,0.00,Wunderground v.1.15,2013-03-09 17:20:00,
2013-03-09 13:30:00,82.0,68.2,29.93,NW,324,6.0,6.0,63,0.00,,,0.00,Wunderground v.1.15,2013-03-09 17:30:00,